Location: Unspecified
(0.0000°N, 0.0000°E)
Time: 13:42:55
(UTC+00:00)

Hubble Space Telescope - Pass Details

Date: 02 April 2020
Orbit: 536 x 540 km, 28.5° (Epoch: 01 April)

Event Time Altitude Azimuth Distance (km) Brightness Sun altitude
Exits shadow 04:47:33 10° 337° (NNW) 1,817 3.3 -18.9°
Reaches altitude 10° 04:47:41 10° 338° (NNW) 1,779 3.2 -18.9°
Maximum altitude 04:50:50 21° 29° (NNE) 1,225 3.0 -18.1°
Drops below altitude 10° 04:54:01 10° 79° (E) 1,783 4.7 -17.3°
Sets 04:56:41 0° 95° (E) 2,676 6.0 -16.6°
